This is the latest recevied weather packets stored in our database for station/object N4MGC. If no packets are shown the sender has not sent any weather packets the latest 10 day(s).
| Time | Temp. | Humidity | Pressure | Rain* | Wind** | Luminosity | Snow |
|---|---|---|---|---|---|---|---|
| 1777750459 | 21.11° C | 38% | 1015.8 hPa | 0 mm | - | 630 W/m² | - |
| 1777750154 | 21.11° C | 36% | 1016 hPa | 0 mm | - | 644 W/m² | - |
| 1777749851 | 21.67° C | 41% | 1015.6 hPa | 0 mm | - | 765 W/m² | - |
| 1777749548 | 22.22° C | 38% | 1016.1 hPa | 0 mm | - | 428 W/m² | - |
| 1777749246 | 21.67° C | 37% | 1015.8 hPa | 0 mm | - | 762 W/m² | - |
| 1777748943 | 21.67° C | 38% | 1015.9 hPa | 0 mm | - | 711 W/m² | - |
| 1777748640 | 21.67° C | 42% | 1015.9 hPa | 0 mm | - | 673 W/m² | - |
| 1777748336 | 21.67° C | 41% | 1015.8 hPa | 0 mm | - | 596 W/m² | - |
| 1777748032 | 21.11° C | 36% | 1015.6 hPa | 0 mm | - | 710 W/m² | - |
| 1777747729 | 20.56° C | 38% | 1016.1 hPa | 0 mm | - | 745 W/m² | - |
| 1777747424 | 20.56° C | 38% | 1016.1 hPa | 0 mm | - | 708 W/m² | - |
| 1777747121 | 21.11° C | 37% | 1016.1 hPa | 0 mm | - | 700 W/m² | - |
| 1777746817 | 20.56° C | 37% | 1016.3 hPa | 0 mm | - | 724 W/m² | - |
| 1777746512 | 20.56° C | 37% | 1016 hPa | 0 mm | - | 678 W/m² | - |
| 1777746208 | 20.56° C | 41% | 1015.9 hPa | 0 mm | - | 721 W/m² | - |
| 1777745905 | 20.56° C | 39% | 1016 hPa | 0 mm | - | 743 W/m² | - |
| 1777745604 | 20.56° C | 38% | 1016.4 hPa | 0 mm | - | 727 W/m² | - |
| 1777745301 | 20.56° C | 37% | 1016.3 hPa | 0 mm | - | 581 W/m² | - |
| 1777744999 | 20° C | 36% | 1016.4 hPa | 0 mm | - | 475 W/m² | - |
| 1777744694 | 20.56° C | 44% | 1016.2 hPa | 0 mm | - | 599 W/m² | - |
| 1777744389 | 20.56° C | 36% | 1016.4 hPa | 0 mm | - | 686 W/m² | - |
| 1777744086 | 20.56° C | 35% | 1016.2 hPa | 0 mm | - | 686 W/m² | - |
| 1777743783 | 20° C | 36% | 1016.4 hPa | 0 mm | - | 706 W/m² | - |
| 1777743479 | 20.56° C | 37% | 1016.5 hPa | 0 mm | - | 714 W/m² | - |
| 1777743177 | 20° C | 36% | 1016.7 hPa | 0 mm | - | 704 W/m² | - |
* Rain latest hour (hover to see other rain measurements)
** Current wind speed in m/s (hover to see current wind gust speed)